Weather History for La Junta, CO

Change the Weather History Date:

Saturday, May 5, 2012

  Actual Average Record
Temperature  
Mean Temperature 74 °F 59 °F  
Max Temperature 92 °F 74 °F 94 °F (1947)
Min Temperature 55 °F 44 °F 31 °F (1950)
Degree Days  
Heating Degree Days 0 7  
Month to date heating degree days 0 37  
Since 1 July heating degree days 4669 5160  
Cooling Degree Days 9 1  
Month to date cooling degree days 22 5  
Year to date cooling degree days 49 14  
Growing Degree Days 22 (Base 50)    
Moisture  
Dew Point 22 °F    
Average Humidity 22    
Maximum Humidity 37    
Minimum Humidity 6    
Precipitation  
Precipitation 0.00 in 0.05 in 0.99 in (1969)
Month to date precipitation 0.00 0.26  
Year to date precipitation 2.06 2.98  
Snow  
Snow 0.00 in - - ()
Month to date snowfall 0.0  
Snow Depth 0.00 in    
Sea Level Pressure  
Sea Level Pressure 29.60 in    
Wind  
Wind Speed 11 mph (West)    
Max Wind Speed 41 mph    
Max Gust Speed 51 mph    
Visibility 10 miles    
Events      
T = Trace of Precipitation, MM = Missing Value Source: NWS Daily Summary

Daily Weather History Graph

Daily Weather History Graph

Search for Another Location

Airport:

Trip Planner

Search our weather history database for the weather conditions in past years. The results will help you decide how hot, cold, wet, or windy it might be!

Date:

Astronomy

May. 05, 2012 Rise Set
Actual Time 5:52 AM MDT 7:49 PM MDT
Civil Twilight 5:24 AM MDT 8:18 PM MDT
Nautical Twilight 4:49 AM MDT 8:53 PM MDT
Astronomical Twilight 4:11 AM MDT 9:30 PM MDT
Moon 7:44 PM MDT (5/5) 5:16 AM MDT (5/5)
Length of Visible Light 14h 54m
Length of Day
13h 56m
Full, 100% of the Moon is Illuminated
May 5
Full
May 5
Full
May 12
Last Quarter
May 20
New
May 28
First Quarter

Hourly Weather History & Observations

Time (MDT) Temp. Dew Point Humidity Pressure Visibility Wind Dir Wind Speed Gust Speed Precip Events Conditions
12:53 AM 71.1 °F 18.0 °F 13% 29.59 in 10.0 mi WSW 15.0 mph - N/A   Clear
1:53 AM 69.1 °F 15.1 °F 13% 29.58 in 10.0 mi WSW 15.0 mph - N/A   Clear
2:53 AM 62.1 °F 19.0 °F 19% 29.58 in 10.0 mi West 16.1 mph - N/A   Clear
3:53 AM 63.0 °F 18.0 °F 18% 29.61 in 10.0 mi WSW 12.7 mph - N/A   Clear
4:53 AM 61.0 °F 19.0 °F 20% 29.61 in 10.0 mi West 15.0 mph - N/A   Clear
5:53 AM 55.9 °F 23.0 °F 28% 29.64 in 10.0 mi West 16.1 mph - N/A   Clear
6:53 AM 61.0 °F 21.9 °F 22% 29.66 in 10.0 mi West 13.8 mph - N/A   Clear
7:53 AM 64.9 °F 27.0 °F 24% 29.69 in 10.0 mi WNW 10.4 mph - N/A   Clear
8:53 AM 75.0 °F 25.0 °F 16% 29.67 in 10.0 mi West 12.7 mph - N/A   Clear
9:53 AM 79.0 °F 24.1 °F 13% 29.66 in 10.0 mi West 8.1 mph - N/A   Clear
10:53 AM 84.0 °F 25.0 °F 12% 29.66 in 10.0 mi Calm Calm - N/A   Clear
11:53 AM 86.0 °F 17.1 °F 8% 29.64 in 10.0 mi WNW 5.8 mph - N/A   Clear
12:53 PM 89.1 °F 14.0 °F 6% 29.60 in 10.0 mi WNW 6.9 mph - N/A   Clear
1:53 PM 89.1 °F 16.0 °F 7% 29.59 in 10.0 mi SE 4.6 mph - N/A   Clear
2:53 PM 90.0 °F 16.0 °F 7% 29.58 in 10.0 mi SSE 5.8 mph - N/A   Clear
3:53 PM 90.0 °F 12.9 °F 6% 29.55 in 10.0 mi Calm Calm - N/A   Clear
4:53 PM 90.0 °F 14.0 °F 6% 29.54 in 10.0 mi Calm Calm - N/A   Clear
5:53 PM 90.0 °F 21.0 °F 8% 29.54 in 10.0 mi East 9.2 mph - N/A   Clear
6:53 PM 86.0 °F 26.1 °F 11% 29.53 in 10.0 mi East 10.4 mph - N/A   Clear
7:53 PM 77.0 °F 30.0 °F 18% 29.55 in 10.0 mi East 9.2 mph - N/A   Clear
8:53 PM 73.0 °F 28.0 °F 19% 29.54 in 10.0 mi East 11.5 mph - N/A   Clear
9:53 PM 70.0 °F 30.9 °F 24% 29.54 in 10.0 mi ESE 4.6 mph - N/A   Clear
10:53 PM 64.9 °F 30.9 °F 28% 29.56 in 10.0 mi West 10.4 mph - N/A   Clear
11:53 PM 64.9 °F 37.9 °F 37% 29.59 in 10.0 mi NNW 21.9 mph 27.6 mph N/A   Clear